Location: Albany
(35.0000°S, 118.0000°E)
Time: 07:11:26
(UTC-05:00)

ADEOS Rocket - Visible Passes

Search period start: 19 December 2014 00:00
Search period end: 29 December 2014 00:00
Orbit: 858 x 1308 km, 98.7° (Epoch: 18 December)

Date Brightness Start Highest point End Pass type
(mag) Time Alt. Az. Time Alt. Az. Time Alt. Az.
19 Dec 3.7 07:24:16 10° SSE 07:31:33 47° E 07:38:12 10° N visible
19 Dec 5.0 09:10:05 10° S 09:16:38 32° WSW 09:22:44 10° NW visible
20 Dec 3.7 08:20:40 10° S 08:28:17 70° WSW 08:35:10 10° NNW visible
20 Dec 6.0 10:09:41 10° SW 10:12:11 12° SW 10:14:39 10° WSW visible
21 Dec 3.6 07:32:03 10° SSE 07:39:27 54° E 07:46:08 10° N visible
21 Dec 5.2 09:18:14 10° S 09:24:20 28° WSW 09:30:04 10° WNW visible
22 Dec 4.5 06:44:34 10° SE 06:50:08 23° E 06:55:19 10° NE visible
22 Dec 3.9 08:28:38 10° S 08:36:04 60° WSW 08:42:48 10° NNW visible
23 Dec 3.4 07:39:52 10° SSE 07:47:20 62° E 07:54:01 10° N visible
23 Dec 5.4 09:26:25 10° SSW 09:32:02 24° WSW 09:37:19 10° WNW visible
24 Dec 4.3 06:52:07 10° SE 06:58:05 26° E 07:03:34 10° NNE visible
24 Dec 4.1 08:36:38 10° S 08:43:50 52° WSW 08:50:22 10° NW visible
25 Dec 3.3 07:47:43 10° SSE 07:55:11 72° ENE 08:01:50 10° N visible
25 Dec 5.6 09:34:41 10° SSW 09:39:42 20° WSW 09:44:28 10° WNW visible
26 Dec 4.1 06:59:44 10° SE 07:06:01 30° E 07:11:43 10° NNE visible
26 Dec 4.4 08:44:39 10° S 08:51:35 44° WSW 08:57:53 10° NW visible
27 Dec 3.3 07:55:35 10° SSE 08:03:01 83° ENE 08:09:36 10° NNW visible
27 Dec 5.7 09:43:02 10° SSW 09:47:21 17° WSW 09:51:28 10° W visible
28 Dec 3.9 07:07:25 10° SSE 07:13:55 35° E 07:19:48 10° NNE visible
28 Dec 4.6 08:52:42 10° S 08:59:19 38° WSW 09:05:20 10° NW visible
